Find Starlink 37937

NORAD ID: 69944 Int'l Des: 2026-157 Owner: SPXS Country: US Constellation: starlink operational
LEOCIRCULAR

当前视图

正在加载3D地球...

About Starlink 37937

Starlink 37937 (NORAD 69944) is a starlink constellation satellite (v2 mini) launched Jul 9, 2026 by SPXS of US. It operates in LEO, CIRCULAR orbit with a mass of 575.00 kg.

即将过境

Passes for default location (London). Set your location on the main map for personalized predictions.

高度历史

Loading altitude history...

两行轨道根数

1 69944U 26157B 26237.91668981 .00007827 00000-0 24266-3 0 9998
2 69944 53.1589 93.1805 0000800 86.4887 39.9035 15.34384199 6035
Epoch: Aug 25, 2026 • Age: 10 hours

当前状态

高度 467.2 km
远地点 / 近地点 N/A
速度 7.63 km/s
星下点 -15.88°S, 166.53°W
发射日期 Jul 9, 2026
运行时间 0.1 years
类型 internet

技术详情

分类 Payload
质量 575.00 kg
干质量 530.00 kg
总质量 575.00 kg
长度 0.30 m
直径 4.10 m
跨度 29.00 m
形状 Box + pan
制造商 SPXS
平台类型 Starlink V2MO
阶段状态 In Orbit
所有者/国家 SPXS/US

Most Searched